Wind_Speed
16 16 16 16 16 16 16 17 17 16 15 14 14 15 16 16 13 15 18 22 24 23 23 20 15 16 17 13 12 13 14 13 12
19 17 17 18 18 17 19 18 18 20 18 16 16 18 18 19 17 16 17 20 24 24 26 25 21 18 19 17 13 12 13 13 14
16 16 17 18 18 18 18 19 20 21 23 23 22 21 22 21 21 20 21 21 18 21 24 29 30 24 21 19 16 13 13 12 13
17 16 17 18 19 20 21 22 22 23 24 24 24 25 24 24 22 21 21 24 23 21 22 25 32 32 26 22 20 17 15 12 13
15 17 18 19 20 22 24 25 26 25 25 24 25 25 25 25 25 24 23 24 25 25 20 21 21 35 32 26 25 21 18 14 12
17 18 21 24 25 26 26 27 27 26 27 24 23 23 23 26 26 26 24 23 27 28 27 23 23 26 38 30 28 25 23 19 15
19 21 24 27 28 28 29 28 27 27 26 25 25 25 23 23 25 25 26 26 26 29 29 29 31 27 38 32 30 28 25 23 19
21 23 25 27 29 32 32 28 25 25 25 26 26 26 27 26 26 28 28 27 27 29 33 32 31 21 32 31 31 31 27 25 23
25 27 28 29 32 33 31 29 28 27 27 28 29 28 28 29 30 30 32 32 31 30 31 30 22 14 23 30 29 30 30 28 26
28 30 31 31 33 33 31 30 33 34 36 33 32 32 32 33 33 32 33 36 34 31 29 29 24 20 15 35 31 28 30 30 30
31 32 32 34 35 35 34 35 37 38 39 39 38 38 38 39 38 37 36 36 37 36 34 32 30 27 23 19 39 33 31 32 32
33 33 34 34 37 38 38 39 41 41 42 42 44 45 46 47 48 46 44 42 39 40 41 40 38 32 29 28 22 34 35 33 32
36 35 35 38 41 42 41 42 42 43 43 44 46 49 51 52 52 53 54 50 48 44 44 44 45 40 35 32 28 32 40 35 34
36 36 39 42 44 43 43 43 45 45 45 47 50 52 55 56 57 59 60 59 56 54 51 48 47 47 43 36 35 33 30 36 35
38 39 42 45 46 46 47 48 49 50 52 56 58 58 59 61 62 64 65 65 64 61 60 57 53 50 49 43 38 37 36 36 39
41 43 45 47 48 50 51 53 53 56 61 63 63 64 65 68 73 77 80 82 81 76 69 67 62 57 54 50 44 39 38 35 43
44 46 47 49 50 52 55 56 59 64 66 68 69 74 76 82 90 97 99 102 98 93 89 80 72 66 61 55 51 44 39 38 45
46 47 49 50 52 54 57 62 64 66 69 73 81 87 94 98 106 109 104 102 106 108 106 97 85 76 69 64 55 49 43 42 43
47 48 50 51 53 57 62 65 67 70 72 81 90 101 109 104 100 86 79 78 78 88 96 101 98 86 77 71 64 57 51 46 43
49 49 49 51 55 60 65 67 68 73 78 90 97 99 91 98 85 59 44 51 63 67 81 91 92 96 88 80 69 63 58 50 48
Wind_Direction
333 340 344 348 345 345 344 343 345 348 351 352 349 343 346 354 332 307 289 283 278 271 272 277 274 266 271 271 251 238 236 241 251
324 327 330 335 338 339 338 337 333 335 337 335 333 332 335 336 330 327 319 308 284 274 271 263 264 266 262 258 253 244 242 245 251
314 316 324 330 331 334 333 333 332 330 331 332 331 332 331 333 329 322 323 320 316 293 281 267 258 257 258 251 246 237 238 240 250
309 318 323 326 329 330 330 328 327 324 324 326 325 326 328 326 325 320 318 321 321 310 307 277 256 252 254 248 242 234 236 241 252
305 313 315 318 319 321 321 321 320 318 316 317 317 318 320 321 322 320 316 318 321 318 321 326 311 246 249 247 242 239 236 238 251
307 304 307 314 316 317 317 316 316 314 312 311 309 312 314 316 315 314 311 310 313 320 318 321 317 291 239 247 243 241 243 239 245
306 304 305 310 315 314 314 311 309 309 308 306 304 303 305 306 307 307 308 307 309 312 313 315 317 324 233 241 250 241 242 244 242
297 298 303 311 313 314 311 307 304 302 300 298 297 297 298 299 299 301 301 303 304 307 307 309 321 344 233 233 252 246 241 245 243
292 297 300 308 312 312 308 301 299 298 293 291 289 288 288 291 292 293 294 294 295 298 299 304 315 344 250 232 246 250 242 243 247
292 297 300 305 306 308 306 298 297 298 294 289 288 286 285 285 283 283 285 286 286 288 289 292 292 290 305 236 256 256 247 241 243
290 294 298 304 305 303 300 298 298 297 296 292 287 286 282 280 280 278 278 277 279 279 278 277 276 276 268 268 255 257 251 244 238
290 292 296 302 304 299 296 297 297 296 294 293 290 287 286 282 279 276 275 271 269 268 269 269 270 266 262 261 268 246 259 246 238
290 291 294 299 302 301 297 297 298 295 291 289 288 286 286 284 280 277 272 271 267 266 264 264 265 261 257 255 252 241 248 243 238
290 292 297 300 301 298 296 296 296 295 293 291 289 287 286 284 282 278 275 271 265 261 260 257 257 259 254 247 249 245 244 242 235
293 295 299 300 299 299 298 299 296 292 291 291 287 284 282 280 278 276 273 269 264 259 255 254 252 252 254 247 243 244 241 244 231
296 298 300 301 300 300 299 298 296 294 292 291 290 289 288 284 279 274 270 266 264 259 252 249 248 246 247 245 241 240 238 241 227
299 299 300 300 299 299 298 299 298 297 296 296 294 291 288 287 284 279 273 266 261 258 255 248 242 241 239 240 239 237 238 236 228
299 299 300 300 299 299 299 301 301 302 302 301 299 298 297 291 287 285 280 271 262 254 248 247 241 235 234 234 234 235 232 231 237
299 300 300 300 299 300 302 304 306 305 305 306 306 306 305 304 300 295 282 269 258 248 242 240 237 231 227 230 229 232 230 226 230
299 301 300 299 300 304 307 307 307 307 310 311 310 310 308 310 305 303 286 271 257 247 236 230 226 228 223 225 226 227 228 222 224
Height
5902 5901 5899 5897 5896 5894 5893 5891 5890 5888 5888 5887 5886 5886 5884 5884 5882 5881 5880 5880 5880 5881 5882 5883 5884 5884 5884 5885 5883 5883 5882 5883 5883
5900 5899 5897 5895 5894 5892 5891 5890 5888 5886 5886 5884 5884 5883 5883 5882 5881 5880 5878 5876 5876 5877 5878 5879 5880 5881 5881 5882 5881 5881 5881 5881 5882
5897 5896 5894 5893 5892 5890 5889 5887 5886 5884 5883 5881 5880 5880 5879 5878 5877 5877 5876 5874 5873 5873 5873 5874 5874 5876 5877 5879 5879 5878 5878 5879 5879
5894 5893 5892 5891 5889 5888 5887 5885 5884 5882 5880 5879 5877 5875 5875 5875 5874 5873 5872 5871 5870 5869 5869 5868 5869 5871 5873 5874 5876 5875 5876 5876 5876
5892 5891 5889 5888 5887 5885 5884 5882 5880 5879 5878 5876 5874 5872 5871 5870 5869 5868 5868 5867 5866 5864 5863 5864 5863 5864 5869 5869 5872 5873 5872 5873 5873
5890 5888 5886 5884 5883 5881 5879 5877 5876 5874 5873 5872 5870 5868 5867 5865 5864 5863 5864 5864 5861 5859 5857 5857 5857 5858 5860 5864 5866 5868 5869 5869 5870
5886 5884 5882 5880 5878 5876 5874 5872 5871 5869 5868 5867 5866 5864 5862 5861 5859 5859 5859 5859 5858 5854 5852 5852 5851 5848 5852 5859 5862 5863 5864 5866 5866
5881 5880 5877 5875 5873 5870 5868 5867 5866 5864 5862 5861 5860 5859 5858 5857 5855 5853 5852 5853 5853 5852 5848 5847 5844 5843 5846 5852 5857 5859 5859 5861 5862
5876 5874 5872 5870 5868 5866 5863 5861 5860 5859 5857 5856 5854 5853 5852 5851 5850 5848 5846 5846 5846 5847 5844 5842 5840 5839 5844 5847 5851 5853 5854 5856 5858
5871 5869 5867 5864 5862 5860 5857 5856 5854 5852 5851 5850 5849 5847 5846 5845 5844 5843 5841 5839 5839 5840 5840 5838 5837 5839 5842 5845 5846 5847 5848 5850 5852
5864 5862 5860 5858 5855 5853 5851 5849 5847 5845 5843 5841 5841 5840 5838 5837 5836 5835 5834 5833 5832 5833 5834 5834 5834 5835 5837 5839 5841 5841 5841 5844 5845
5857 5855 5853 5851 5849 5846 5843 5841 5839 5837 5835 5833 5831 5830 5829 5828 5826 5825 5825 5825 5824 5824 5825 5826 5827 5828 5829 5831 5832 5833 5835 5837 5839
5850 5848 5845 5843 5840 5837 5835 5832 5830 5827 5826 5823 5821 5819 5816 5814 5814 5813 5813 5814 5814 5814 5814 5816 5817 5819 5821 5823 5826 5827 5828 5830 5833
5842 5839 5836 5833 5830 5827 5824 5822 5820 5817 5814 5812 5810 5806 5803 5801 5798 5796 5798 5797 5799 5800 5802 5803 5806 5808 5811 5813 5817 5820 5820 5822 5825
5831 5829 5826 5822 5818 5815 5812 5810 5808 5805 5802 5799 5797 5795 5792 5788 5783 5779 5776 5777 5778 5781 5784 5788 5791 5794 5798 5802 5806 5810 5813 5813 5816
5821 5818 5814 5811 5807 5804 5801 5798 5794 5790 5785 5781 5778 5775 5772 5768 5763 5758 5753 5751 5751 5755 5762 5767 5773 5778 5783 5789 5794 5799 5803 5805 5807
5811 5807 5803 5800 5797 5793 5788 5784 5779 5773 5766 5761 5757 5753 5753 5743 5731 5722 5718 5712 5714 5721 5728 5740 5751 5759 5764 5773 5781 5786 5791 5795 5798
5800 5796 5792 5789 5785 5779 5774 5769 5762 5755 5746 5738 5728 5720 5712 5707 5693 5673 5659 5652 5657 5671 5685 5700 5722 5734 5745 5754 5766 5774 5780 5784 5788
5789 5786 5782 5777 5772 5766 5759 5751 5744 5735 5727 5717 5701 5682 5658 5638 5632 5631 5606 5598 5602 5613 5633 5657 5681 5705 5720 5734 5747 5759 5767 5773 5778
5778 5774 5769 5764 5758 5752 5743 5734 5725 5714 5704 5691 5676 5655 5632 5609 5584 5581 5577 5568 5567 5576 5590 5614 5641 5670 5693 5712 5729 5743 5755 5763 5768